TITAN 3C TRANSTAGE DEB, 1680

Orbit data source: Space-Track

TITAN 3C TRANSTAGE DEB, 1680 is space debris in LEO originally from a launch on Fri, 15 Oct 1965 UTC launched from the Air Force Eastern Test Range (AFETR). Debris objects in space refer to the collection of defunct objects orbiting the Earth. Examples of debris include non-operational satellites, rocket bodies, and fragments generated from explosions, collisions, or faulty payload assembly.

Loading next visibility...
Identifier
1680, 1965-082AT
Orbit
LEO
Country
Flag of USUS
Related business
Manufacturer
Unknown
Mission
Spacecraft
Bus & Motor
Unknown
Mass
Unknown
Launch date (UTC)
1965-10-15 (61 years ago)
Launch vehicle
Unknown
Launch site
Air Force Eastern Test Range (AFETR)
Object type
Payload
Rocket body
Debris
Shape & HBR
Unknown shape, 1.2 m
Radar Cross Section
Large (>1 m²)

Expand to show TLE details & history
Last TLE update: 2 days ago

TLE from 2 days ago
0 TITAN 3C TRANSTAGE DEB
1 01680U 65082AT  26252.41213836  .00000274  00000-0  42666-4 0  9992
2 01680  32.2567  25.0853 0020778 274.2328  85.5945 14.65778851226027
Epoch: 2026-09-09T09:53Z
TLE epoch observation values (Epoch: 2026-09-09T09:53:28.754Z)
Latitude
-0.00005°
Longitude
-111.74917°
Altitude
672.141 km
Speed
7.524 km/s
True Right ascension
01h 40m 20s
True Declination
0° 00' 00"
Sunlit
Object was in full shadow at epoch
Visualization orbit readout
Latitude
Unknown
Longitude
Unknown
Altitude
Unknown
Speed
Unknown
Apparent Right ascension
Unknown
Apparent Declination
Unknown
Sunlit
N/A
Visualization observer readout
Local Sidereal Time
02:30:20
Azimuth
Unknown
Elevation
Unknown
Doppler factor
Unknown
Orbital elements
Apogee altitude
692.82 km
Perigee altitude
663.497 km
Semi-major axis
7,056.295 km
Eccentricity
0.00208
Inclination
32.2567°
RAAN
25.0853°
Arg. of periapsis
274.2328°
True anomaly
85.83194°
Mean anomaly
85.5945°
Eccentric anomaly
85.71322°
Mean motion
3.66166 °/min
Orbital period
98.32 mins
BSTAR
0.000042666

Documentation

Showing up to 5 results
|